QPF
0.00 0.00 0.00 0.00 0.00 0.00 0.00 0.00 0.00 0.00 0.00 0.00 0.00 0.00 0.00 0.00 0.01 0.03 0.00 0.00 0.00 0.00 0.00 0.00 0.00 0.00 0.00 0.00 0.01 0.01 0.01 0.01 0.01 0.01 0.01 0.01 0.01 0.01 0.01 0.01 0.01 0.01 0.01 0.00 0.00 0.00 0.00 0.00 0.00
0.00 0.00 0.00 0.00 0.00 0.00 0.00 0.00 0.00 0.00 0.00 0.00 0.00 0.00 0.00 0.00 0.00 0.00 0.00 0.00 0.00 0.00 0.00 0.00 0.00 0.00 0.00 0.01 0.01 0.01 0.01 0.01 0.01 0.01 0.01 0.01 0.01 0.01 0.01 0.01 0.01 0.01 0.01 0.00 0.00 0.00 0.00 0.00 0.00
0.00 0.00 0.00 0.00 0.00 0.00 0.00 0.00 0.00 0.00 0.00 0.00 0.00 0.00 0.00 0.00 0.00 0.00 0.00 0.00 0.00 0.00 0.00 0.00 0.00 0.00 0.00 0.01 0.02 0.01 0.01 0.01 0.01 0.01 0.01 0.01 0.01 0.01 0.01 0.01 0.01 0.01 0.01 0.00 0.00 0.00 0.00 0.00 0.00
0.00 0.00 0.00 0.00 0.00 0.00 0.00 0.00 0.00 0.00 0.00 0.00 0.00 0.00 0.00 0.00 0.00 0.00 0.00 0.00 0.00 0.01 0.00 0.00 0.00 0.00 0.01 0.01 0.01 0.01 0.01 0.01 0.01 0.01 0.01 0.01 0.01 0.00 0.01 0.01 0.01 0.01 0.00 0.00 0.00 0.00 0.00 0.00 0.00
0.00 0.00 0.00 0.00 0.00 0.00 0.00 0.00 0.00 0.00 0.00 0.00 0.00 0.00 0.00 0.00 0.00 0.00 0.01 0.01 0.01 0.01 0.01 0.00 0.00 0.00 0.01 0.01 0.01 0.01 0.01 0.01 0.01 0.01 0.00 0.00 0.00 0.00 0.00 0.00 0.00 0.00 0.00 0.00 0.00 0.00 0.00 0.00 0.00
0.00 0.00 0.00 0.00 0.00 0.00 0.00 0.00 0.00 0.00 0.00 0.00 0.00 0.00 0.00 0.00 0.00 0.00 0.01 0.01 0.01 0.01 0.01 0.00 0.00 0.00 0.00 0.01 0.01 0.02 0.01 0.01 0.01 0.01 0.00 0.00 0.00 0.00 0.00 0.00 0.00 0.00 0.00 0.00 0.00 0.00 0.00 0.00 0.00
0.00 0.00 0.00 0.00 0.00 0.00 0.00 0.00 0.00 0.00 0.00 0.00 0.00 0.00 0.00 0.00 0.00 0.00 0.00 0.01 0.01 0.01 0.01 0.00 0.00 0.00 0.00 0.00 0.01 0.01 0.01 0.00 0.00 0.01 0.00 0.00 0.00 0.00 0.00 0.00 0.00 0.00 0.00 0.00 0.00 0.00 0.00 0.00 0.00
0.00 0.00 0.00 0.00 0.00 0.00 0.00 0.00 0.00 0.00 0.00 0.00 0.00 0.00 0.00 0.00 0.00 0.00 0.00 0.01 0.01 0.02 0.02 0.01 0.00 0.00 0.00 0.00 0.00 0.00 0.00 0.00 0.00 0.00 0.00 0.00 0.00 0.00 0.00 0.00 0.00 0.00 0.00 0.00 0.00 0.00 0.00 0.00 0.00
0.00 0.00 0.00 0.00 0.00 0.00 0.00 0.00 0.00 0.00 0.00 0.00 0.00 0.00 0.00 0.00 0.00 0.00 0.01 0.01 0.01 0.02 0.02 0.01 0.01 0.01 0.01 0.00 0.00 0.00 0.00 0.00 0.00 0.00 0.00 0.00 0.00 0.00 0.00 0.00 0.00 0.00 0.00 0.00 0.00 0.00 0.00 0.00 0.00
0.00 0.00 0.00 0.00 0.00 0.00 0.00 0.00 0.00 0.00 0.00 0.00 0.00 0.00 0.00 0.00 0.00 0.00 0.00 0.00 0.01 0.01 0.02 0.01 0.01 0.01 0.01 0.00 0.00 0.00 0.00 0.00 0.00 0.00 0.00 0.00 0.00 0.00 0.00 0.00 0.00 0.00 0.00 0.00 0.00 0.00 0.00 0.00 0.00
0.00 0.00 0.00 0.00 0.00 0.00 0.00 0.00 0.00 0.00 0.00 0.00 0.00 0.00 0.00 0.00 0.00 0.00 0.00 0.00 0.00 0.00 0.01 0.01 0.01 0.01 0.00 0.00 0.00 0.00 0.00 0.00 0.00 0.00 0.00 0.00 0.00 0.00 0.00 0.00 0.00 0.00 0.00 0.00 0.00 0.00 0.00 0.00 0.00
0.00 0.00 0.00 0.00 0.00 0.00 0.00 0.00 0.00 0.00 0.00 0.00 0.00 0.00 0.00 0.00 0.00 0.00 0.00 0.00 0.00 0.00 0.00 0.01 0.01 0.00 0.00 0.00 0.00 0.00 0.00 0.00 0.00 0.00 0.00 0.00 0.00 0.00 0.00 0.00 0.00 0.00 0.00 0.00 0.00 0.00 0.00 0.00 0.00
0.00 0.00 0.00 0.00 0.00 0.00 0.00 0.00 0.00 0.00 0.00 0.00 0.00 0.00 0.00 0.00 0.00 0.00 0.00 0.00 0.00 0.00 0.00 0.00 0.00 0.00 0.00 0.00 0.00 0.00 0.00 0.00 0.00 0.00 0.00 0.00 0.00 0.00 0.00 0.00 0.00 0.00 0.00 0.00 0.00 0.00 0.00 0.00 0.00
0.00 0.00 0.00 0.00 0.00 0.00 0.00 0.00 0.00 0.00 0.00 0.00 0.00 0.00 0.00 0.00 0.00 0.00 0.00 0.00 0.00 0.00 0.00 0.00 0.00 0.00 0.00 0.00 0.00 0.00 0.00 0.00 0.00 0.00 0.00 0.00 0.00 0.00 0.00 0.00 0.00 0.00 0.00 0.00 0.00 0.00 0.00 0.00 0.00
0.00 0.00 0.00 0.00 0.00 0.00 0.00 0.00 0.00 0.00 0.00 0.00 0.00 0.00 0.00 0.00 0.00 0.00 0.00 0.00 0.00 0.00 0.00 0.00 0.00 0.00 0.00 0.00 0.00 0.00 0.00 0.00 0.00 0.00 0.00 0.00 0.00 0.00 0.00 0.00 0.00 0.00 0.00 0.00 0.00 0.00 0.00 0.00 0.00
0.01 0.01 0.00 0.00 0.00 0.00 0.00 0.00 0.00 0.00 0.00 0.00 0.00 0.00 0.00 0.00 0.00 0.00 0.00 0.00 0.00 0.00 0.00 0.00 0.00 0.00 0.00 0.00 0.00 0.00 0.00 0.00 0.00 0.00 0.00 0.00 0.00 0.00 0.00 0.00 0.00 0.00 0.00 0.00 0.00 0.00 0.00 0.00 0.00
0.01 0.01 0.00 0.00 0.00 0.00 0.00 0.00 0.00 0.00 0.00 0.00 0.00 0.00 0.00 0.00 0.00 0.00 0.00 0.00 0.00 0.00 0.00 0.00 0.00 0.00 0.00 0.00 0.00 0.00 0.00 0.00 0.00 0.00 0.00 0.00 0.00 0.00 0.00 0.00 0.00 0.00 0.00 0.00 0.00 0.00 0.00 0.00 0.00
0.01 0.00 0.00 0.00 0.00 0.00 0.00 0.00 0.00 0.00 0.00 0.00 0.00 0.00 0.00 0.00 0.00 0.00 0.00 0.00 0.00 0.00 0.00 0.00 0.00 0.00 0.00 0.00 0.00 0.00 0.00 0.00 0.00 0.00 0.00 0.00 0.00 0.00 0.00 0.00 0.00 0.00 0.00 0.00 0.00 0.00 0.00 0.00 0.00
0.00 0.00 0.00 0.00 0.00 0.00 0.00 0.00 0.00 0.00 0.00 0.00 0.00 0.00 0.00 0.00 0.00 0.00 0.00 0.00 0.00 0.00 0.00 0.00 0.00 0.00 0.00 0.00 0.00 0.00 0.00 0.00 0.00 0.00 0.00 0.00 0.00 0.00 0.00 0.00 0.00 0.00 0.00 0.00 0.00 0.00 0.00 0.00 0.00
0.00 0.00 0.00 0.00 0.00 0.00 0.00 0.00 0.00 0.00 0.00 0.00 0.00 0.00 0.00 0.00 0.00 0.00 0.00 0.00 0.00 0.00 0.00 0.00 0.00 0.00 0.00 0.00 0.00 0.00 0.00 0.00 0.00 0.00 0.00 0.00 0.00 0.00 0.00 0.00 0.00 0.00 0.00 0.00 0.00 0.00 0.00 0.00 0.00
0.01 0.00 0.00 0.00 0.00 0.00 0.00 0.00 0.00 0.00 0.00 0.00 0.00 0.00 0.00 0.00 0.00 0.00 0.00 0.00 0.00 0.00 0.00 0.00 0.00 0.00 0.00 0.00 0.00 0.00 0.00 0.00 0.00 0.00 0.00 0.00 0.00 0.00 0.00 0.00 0.00 0.00 0.00 0.00 0.01 0.01 0.01 0.01 0.00
0.01 0.00 0.00 0.00 0.00 0.00 0.00 0.00 0.00 0.00 0.00 0.00 0.00 0.00 0.00 0.00 0.00 0.00 0.00 0.00 0.00 0.00 0.00 0.00 0.00 0.00 0.00 0.00 0.00 0.00 0.00 0.00 0.00 0.00 0.00 0.00 0.00 0.00 0.00 0.00 0.00 0.00 0.00 0.00 0.01 0.01 0.01 0.01 0.01
0.00 0.00 0.00 0.01 0.01 0.01 0.00 0.00 0.00 0.00 0.00 0.00 0.00 0.00 0.00 0.00 0.00 0.00 0.00 0.00 0.00 0.00 0.00 0.00 0.00 0.00 0.00 0.00 0.00 0.00 0.00 0.00 0.00 0.00 0.00 0.00 0.00 0.00 0.00 0.00 0.00 0.00 0.00 0.01 0.01 0.01 0.01 0.01 0.01
0.01 0.01 0.01 0.01 0.01 0.01 0.00 0.00 0.00 0.00 0.00 0.00 0.00 0.00 0.00 0.00 0.00 0.00 0.00 0.00 0.00 0.00 0.00 0.00 0.00 0.00 0.00 0.00 0.00 0.00 0.00 0.00 0.00 0.00 0.00 0.00 0.00 0.00 0.00 0.00 0.00 0.00 0.00 0.01 0.01 0.01 0.01 0.01 0.01
0.02 0.02 0.03 0.04 0.04 0.01 0.00 0.00 0.00 0.00 0.00 0.00 0.00 0.00 0.00 0.00 0.00 0.00 0.00 0.00 0.00 0.00 0.00 0.00 0.00 0.00 0.00 0.00 0.00 0.00 0.00 0.00 0.00 0.00 0.00 0.00 0.00 0.00 0.00 0.00 0.00 0.00 0.00 0.01 0.01 0.01 0.01 0.01 0.01
0.02 0.01 0.02 0.02 0.01 0.00 0.00 0.00 0.00 0.00 0.00 0.00 0.00 0.00 0.00 0.00 0.00 0.00 0.00 0.00 0.00 0.00 0.00 0.00 0.00 0.00 0.00 0.00 0.00 0.00 0.00 0.00 0.00 0.00 0.00 0.00 0.00 0.00 0.00 0.00 0.00 0.00 0.00 0.00 0.01 0.01 0.01 0.01 0.01
0.02 0.02 0.01 0.01 0.00 0.00 0.00 0.00 0.00 0.00 0.00 0.00 0.00 0.00 0.00 0.00 0.00 0.00 0.00 0.00 0.00 0.00 0.00 0.00 0.00 0.00 0.00 0.00 0.00 0.00 0.00 0.00 0.00 0.00 0.00 0.00 0.00 0.00 0.00 0.00 0.00 0.00 0.00 0.00 0.01 0.01 0.01 0.01 0.01
0.01 0.02 0.03 0.02 0.01 0.00 0.00 0.00 0.00 0.00 0.00 0.00 0.00 0.00 0.00 0.00 0.00 0.00 0.00 0.00 0.00 0.00 0.00 0.00 0.00 0.00 0.00 0.00 0.00 0.00 0.00 0.00 0.00 0.00 0.00 0.00 0.00 0.00 0.00 0.00 0.00 0.00 0.00 0.00 0.00 0.01 0.00 0.01 0.01
0.01 0.02 0.03 0.02 0.01 0.00 0.00 0.00 0.00 0.00 0.00 0.00 0.00 0.00 0.00 0.00 0.00 0.00 0.00 0.00 0.00 0.00 0.00 0.00 0.00 0.00 0.00 0.00 0.00 0.00 0.00 0.00 0.00 0.00 0.00 0.00 0.00 0.00 0.00 0.00 0.00 0.00 0.00 0.00 0.01 0.00 0.00 0.00 0.00
0.01 0.01 0.01 0.01 0.01 0.00 0.00 0.00 0.00 0.00 0.00 0.00 0.00 0.00 0.00 0.00 0.00 0.00 0.00 0.00 0.00 0.00 0.00 0.00 0.00 0.00 0.00 0.00 0.00 0.00 0.00 0.00 0.00 0.00 0.00 0.00 0.00 0.00 0.00 0.00 0.00 0.00 0.00 0.00 0.01 0.01 0.01 0.01 0.01
MSLP
1013.53 1013.86 1014.39 1015.05 1015.77 1016.44 1016.98 1017.35 1017.54 1017.58 1017.53 1017.48 1017.47 1017.55 1017.72 1017.95 1018.19 1018.41 1018.56 1018.65 1018.71 1018.78 1018.89 1019.08 1019.35 1019.67 1020.01 1020.30 1020.52 1020.65 1020.69 1020.70 1020.70 1020.76 1020.90 1021.13 1021.41 1021.72 1022.02 1022.26 1022.44 1022.56 1022.64 1022.71 1022.79 1022.88 1022.99 1023.09 1023.17
1014.07 1014.51 1015.10 1015.77 1016.44 1017.01 1017.42 1017.64 1017.68 1017.59 1017.44 1017.33 1017.29 1017.37 1017.56 1017.82 1018.11 1018.36 1018.55 1018.69 1018.78 1018.87 1019.01 1019.22 1019.50 1019.83 1020.17 1020.48 1020.72 1020.88 1020.98 1021.03 1021.09 1021.20 1021.37 1021.62 1021.91 1022.21 1022.49 1022.71 1022.87 1022.98 1023.05 1023.11 1023.19 1023.29 1023.39 1023.49 1023.56
1014.69 1015.20 1015.80 1016.42 1016.97 1017.40 1017.64 1017.70 1017.61 1017.42 1017.22 1017.09 1017.07 1017.19 1017.43 1017.75 1018.09 1018.39 1018.62 1018.78 1018.90 1019.02 1019.17 1019.38 1019.67 1020.01 1020.36 1020.69 1020.96 1021.16 1021.29 1021.40 1021.50 1021.64 1021.84 1022.08 1022.36 1022.64 1022.89 1023.08 1023.22 1023.32 1023.40 1023.48 1023.57 1023.67 1023.78 1023.87 1023.93
1015.34 1015.86 1016.42 1016.93 1017.34 1017.59 1017.67 1017.59 1017.39 1017.14 1016.93 1016.83 1016.86 1017.05 1017.36 1017.74 1018.12 1018.47 1018.73 1018.92 1019.06 1019.19 1019.36 1019.58 1019.88 1020.22 1020.59 1020.94 1021.23 1021.46 1021.64 1021.78 1021.91 1022.07 1022.27 1022.50 1022.75 1023.00 1023.22 1023.40 1023.54 1023.64 1023.74 1023.84 1023.95 1024.07 1024.18 1024.27 1024.32
1015.93 1016.42 1016.89 1017.27 1017.52 1017.61 1017.54 1017.35 1017.08 1016.82 1016.64 1016.60 1016.71 1016.98 1017.35 1017.79 1018.21 1018.58 1018.86 1019.07 1019.23 1019.38 1019.56 1019.80 1020.10 1020.47 1020.85 1021.21 1021.53 1021.79 1021.99 1022.15 1022.30 1022.47 1022.65 1022.86 1023.09 1023.31 1023.52 1023.70 1023.85 1023.98 1024.11 1024.24 1024.37 1024.51 1024.62 1024.70 1024.74
1016.38 1016.82 1017.18 1017.42 1017.52 1017.47 1017.30 1017.03 1016.75 1016.52 1016.41 1016.45 1016.65 1016.99 1017.42 1017.89 1018.34 1018.71 1018.99 1019.20 1019.37 1019.54 1019.74 1020.00 1020.33 1020.71 1021.11 1021.49 1021.83 1022.10 1022.32 1022.50 1022.65 1022.81 1022.99 1023.18 1023.39 1023.61 1023.82 1024.01 1024.18 1024.35 1024.52 1024.68 1024.84 1024.98 1025.09 1025.15 1025.17
1016.65 1017.02 1017.29 1017.41 1017.39 1017.24 1017.00 1016.72 1016.46 1016.30 1016.27 1016.41 1016.69 1017.09 1017.56 1018.03 1018.46 1018.82 1019.09 1019.30 1019.47 1019.65 1019.88 1020.17 1020.52 1020.93 1021.34 1021.74 1022.08 1022.37 1022.60 1022.78 1022.94 1023.11 1023.28 1023.48 1023.69 1023.91 1024.14 1024.35 1024.56 1024.76 1024.95 1025.14 1025.30 1025.43 1025.53 1025.57 1025.57
1016.77 1017.07 1017.25 1017.28 1017.18 1016.97 1016.71 1016.45 1016.26 1016.18 1016.24 1016.46 1016.81 1017.24 1017.71 1018.17 1018.57 1018.89 1019.14 1019.33 1019.50 1019.70 1019.96 1020.27 1020.66 1021.08 1021.51 1021.91 1022.27 1022.57 1022.80 1023.00 1023.18 1023.35 1023.54 1023.76 1023.99 1024.23 1024.48 1024.72 1024.96 1025.18 1025.38 1025.56 1025.71 1025.82 1025.89 1025.90 1025.89
1016.77 1017.02 1017.14 1017.11 1016.96 1016.73 1016.48 1016.27 1016.14 1016.15 1016.29 1016.57 1016.96 1017.40 1017.85 1018.27 1018.62 1018.90 1019.11 1019.29 1019.47 1019.69 1019.97 1020.31 1020.71 1021.15 1021.59 1022.00 1022.36 1022.67 1022.92 1023.14 1023.34 1023.55 1023.77 1024.02 1024.28 1024.55 1024.82 1025.09 1025.33 1025.55 1025.74 1025.90 1026.02 1026.09 1026.12 1026.11 1026.08
1016.74 1016.96 1017.02 1016.96 1016.79 1016.57 1016.35 1016.19 1016.12 1016.19 1016.39 1016.70 1017.09 1017.51 1017.92 1018.28 1018.58 1018.82 1019.00 1019.18 1019.37 1019.60 1019.91 1020.27 1020.69 1021.13 1021.58 1021.98 1022.35 1022.67 1022.94 1023.19 1023.43 1023.68 1023.95 1024.24 1024.54 1024.84 1025.13 1025.39 1025.63 1025.83 1025.99 1026.11 1026.18 1026.21 1026.20 1026.18 1026.14
1016.76 1016.94 1016.98 1016.90 1016.72 1016.51 1016.32 1016.19 1016.17 1016.27 1016.48 1016.78 1017.14 1017.52 1017.87 1018.18 1018.43 1018.63 1018.81 1018.99 1019.19 1019.46 1019.78 1020.16 1020.59 1021.03 1021.47 1021.87 1022.24 1022.57 1022.86 1023.15 1023.43 1023.73 1024.05 1024.38 1024.71 1025.04 1025.34 1025.60 1025.82 1025.99 1026.11 1026.18 1026.21 1026.20 1026.17 1026.13 1026.11
1016.87 1017.02 1017.03 1016.93 1016.75 1016.55 1016.37 1016.26 1016.24 1016.33 1016.52 1016.78 1017.08 1017.39 1017.69 1017.94 1018.15 1018.34 1018.52 1018.72 1018.96 1019.25 1019.60 1020.00 1020.43 1020.86 1021.28 1021.68 1022.04 1022.38 1022.69 1023.01 1023.33 1023.68 1024.03 1024.40 1024.77 1025.11 1025.42 1025.68 1025.88 1026.02 1026.11 1026.14 1026.14 1026.10 1026.07 1026.04 1026.05
1017.04 1017.16 1017.15 1017.04 1016.86 1016.66 1016.47 1016.35 1016.30 1016.35 1016.48 1016.66 1016.89 1017.12 1017.35 1017.56 1017.75 1017.95 1018.15 1018.39 1018.67 1019.00 1019.38 1019.79 1020.22 1020.64 1021.05 1021.43 1021.78 1022.12 1022.45 1022.79 1023.14 1023.51 1023.90 1024.30 1024.68 1025.04 1025.35 1025.61 1025.80 1025.93 1026.01 1026.03 1026.02 1026.00 1025.98 1025.98 1026.03
1017.22 1017.32 1017.29 1017.17 1016.98 1016.78 1016.58 1016.43 1016.33 1016.30 1016.34 1016.43 1016.56 1016.71 1016.87 1017.05 1017.24 1017.46 1017.71 1018.00 1018.34 1018.71 1019.12 1019.55 1019.98 1020.39 1020.78 1021.15 1021.49 1021.82 1022.15 1022.50 1022.86 1023.25 1023.65 1024.05 1024.44 1024.81 1025.13 1025.40 1025.61 1025.76 1025.86 1025.91 1025.93 1025.94 1025.95 1026.00 1026.09
1017.32 1017.39 1017.36 1017.24 1017.07 1016.86 1016.66 1016.46 1016.30 1016.19 1016.12 1016.10 1016.13 1016.19 1016.30 1016.46 1016.66 1016.91 1017.21 1017.56 1017.95 1018.38 1018.82 1019.27 1019.70 1020.11 1020.50 1020.85 1021.19 1021.51 1021.83 1022.17 1022.52 1022.90 1023.29 1023.69 1024.08 1024.45 1024.80 1025.10 1025.35 1025.55 1025.70 1025.81 1025.89 1025.95 1026.02 1026.11 1026.25
1017.26 1017.31 1017.30 1017.21 1017.07 1016.88 1016.67 1016.45 1016.23 1016.02 1015.85 1015.72 1015.64 1015.62 1015.68 1015.81 1016.02 1016.30 1016.66 1017.07 1017.52 1017.99 1018.47 1018.94 1019.39 1019.81 1020.20 1020.55 1020.88 1021.20 1021.51 1021.83 1022.16 1022.51 1022.87 1023.25 1023.63 1024.01 1024.38 1024.73 1025.04 1025.32 1025.55 1025.74 1025.90 1026.03 1026.15 1026.30 1026.47
1016.98 1017.06 1017.08 1017.05 1016.97 1016.83 1016.63 1016.39 1016.11 1015.82 1015.54 1015.30 1015.12 1015.02 1015.03 1015.14 1015.35 1015.67 1016.07 1016.52 1017.02 1017.54 1018.05 1018.55 1019.02 1019.46 1019.87 1020.24 1020.58 1020.89 1021.20 1021.49 1021.79 1022.10 1022.42 1022.77 1023.14 1023.52 1023.92 1024.32 1024.71 1025.07 1025.40 1025.68 1025.92 1026.12 1026.29 1026.47 1026.67
1016.53 1016.66 1016.76 1016.82 1016.81 1016.73 1016.56 1016.30 1015.98 1015.60 1015.22 1014.87 1014.59 1014.42 1014.37 1014.46 1014.67 1015.00 1015.43 1015.92 1016.45 1016.99 1017.54 1018.06 1018.56 1019.03 1019.47 1019.87 1020.24 1020.58 1020.88 1021.16 1021.42 1021.69 1021.97 1022.28 1022.63 1023.02 1023.44 1023.89 1024.35 1024.80 1025.21 1025.57 1025.88 1026.14 1026.35 1026.55 1026.76
1015.99 1016.19 1016.40 1016.56 1016.65 1016.63 1016.49 1016.21 1015.83 1015.37 1014.88 1014.43 1014.05 1013.80 1013.70 1013.76 1013.96 1014.30 1014.74 1015.24 1015.78 1016.34 1016.90 1017.44 1017.98 1018.49 1018.97 1019.43 1019.84 1020.21 1020.53 1020.80 1021.05 1021.28 1021.52 1021.79 1022.11 1022.49 1022.93 1023.42 1023.94 1024.45 1024.94 1025.37 1025.73 1026.02 1026.26 1026.46 1026.68
1015.48 1015.79 1016.11 1016.38 1016.55 1016.58 1016.44 1016.13 1015.67 1015.11 1014.51 1013.95 1013.48 1013.16 1013.01 1013.03 1013.22 1013.55 1013.98 1014.47 1015.01 1015.56 1016.12 1016.68 1017.24 1017.79 1018.33 1018.84 1019.32 1019.74 1020.10 1020.39 1020.63 1020.84 1021.05 1021.29 1021.58 1021.95 1022.39 1022.91 1023.46 1024.01 1024.54 1025.01 1025.40 1025.71 1025.96 1026.17 1026.38
1015.10 1015.54 1015.98 1016.34 1016.57 1016.62 1016.44 1016.05 1015.49 1014.81 1014.09 1013.42 1012.86 1012.47 1012.27 1012.27 1012.44 1012.76 1013.17 1013.64 1014.14 1014.67 1015.21 1015.76 1016.33 1016.92 1017.51 1018.09 1018.63 1019.12 1019.53 1019.86 1020.12 1020.32 1020.52 1020.73 1021.00 1021.35 1021.79 1022.31 1022.87 1023.45 1024.00 1024.48 1024.89 1025.21 1025.45 1025.66 1025.88
1014.94 1015.50 1016.04 1016.46 1016.71 1016.71 1016.46 1015.96 1015.26 1014.44 1013.59 1012.81 1012.18 1011.73 1011.50 1011.48 1011.64 1011.94 1012.32 1012.75 1013.21 1013.69 1014.19 1014.71 1015.27 1015.88 1016.50 1017.14 1017.75 1018.30 1018.78 1019.16 1019.45 1019.67 1019.87 1020.08 1020.34 1020.67 1021.10 1021.61 1022.17 1022.75 1023.31 1023.80 1024.21 1024.53 1024.78 1025.00 1025.23
1014.97 1015.64 1016.24 1016.69 1016.90 1016.83 1016.45 1015.80 1014.95 1013.98 1013.01 1012.14 1011.43 1010.95 1010.71 1010.69 1010.85 1011.13 1011.48 1011.87 1012.27 1012.68 1013.11 1013.59 1014.11 1014.70 1015.34 1016.01 1016.67 1017.28 1017.82 1018.26 1018.59 1018.85 1019.06 1019.28 1019.54 1019.87 1020.29 1020.80 1021.36 1021.94 1022.49 1022.99 1023.42 1023.75 1024.03 1024.28 1024.54
1015.07 1015.84 1016.48 1016.92 1017.06 1016.87 1016.35 1015.54 1014.53 1013.43 1012.35 1011.41 1010.67 1010.19 1009.95 1009.95 1010.12 1010.39 1010.72 1011.06 1011.39 1011.72 1012.06 1012.45 1012.92 1013.46 1014.08 1014.75 1015.43 1016.08 1016.66 1017.14 1017.53 1017.83 1018.08 1018.32 1018.60 1018.94 1019.37 1019.88 1020.44 1021.03 1021.60 1022.12 1022.57 1022.94 1023.26 1023.56 1023.87
1015.13 1015.96 1016.62 1017.00 1017.06 1016.74 1016.08 1015.13 1013.99 1012.79 1011.65 1010.67 1009.94 1009.48 1009.29 1009.32 1009.50 1009.78 1010.08 1010.37 1010.62 1010.86 1011.10 1011.39 1011.76 1012.23 1012.79 1013.42 1014.08 1014.74 1015.34 1015.85 1016.28 1016.62 1016.92 1017.21 1017.52 1017.89 1018.34 1018.87 1019.46 1020.07 1020.66 1021.22 1021.72 1022.15 1022.53 1022.90 1023.28
1014.98 1015.85 1016.50 1016.83 1016.80 1016.38 1015.60 1014.55 1013.33 1012.09 1010.94 1009.98 1009.30 1008.90 1008.76 1008.84 1009.06 1009.34 1009.61 1009.84 1010.02 1010.15 1010.29 1010.46 1010.71 1011.07 1011.54 1012.10 1012.71 1013.33 1013.91 1014.44 1014.89 1015.28 1015.62 1015.96 1016.32 1016.75 1017.24 1017.81 1018.43 1019.08 1019.72 1020.33 1020.89 1021.40 1021.87 1022.32 1022.79
1014.54 1015.42 1016.05 1016.33 1016.22 1015.73 1014.89 1013.80 1012.58 1011.35 1010.26 1009.38 1008.78 1008.46 1008.41 1008.54 1008.79 1009.07 1009.32 1009.49 1009.59 1009.63 1009.65 1009.70 1009.83 1010.07 1010.42 1010.86 1011.38 1011.94 1012.48 1012.99 1013.45 1013.86 1014.25 1014.65 1015.07 1015.56 1016.11 1016.73 1017.41 1018.10 1018.80 1019.47 1020.10 1020.70 1021.25 1021.80 1022.35
1013.79 1014.66 1015.24 1015.48 1015.33 1014.81 1013.97 1012.91 1011.75 1010.62 1009.64 1008.88 1008.40 1008.19 1008.21 1008.40 1008.67 1008.94 1009.15 1009.28 1009.30 1009.26 1009.18 1009.12 1009.13 1009.24 1009.46 1009.79 1010.19 1010.65 1011.12 1011.59 1012.03 1012.46 1012.89 1013.34 1013.83 1014.38 1015.00 1015.69 1016.41 1017.16 1017.91 1018.64 1019.34 1020.01 1020.66 1021.29 1021.94
1012.79 1013.61 1014.14 1014.34 1014.17 1013.66 1012.88 1011.92 1010.89 1009.91 1009.08 1008.48 1008.13 1008.02 1008.12 1008.34 1008.62 1008.87 1009.05 1009.13 1009.10 1008.99 1008.84 1008.70 1008.61 1008.61 1008.71 1008.91 1009.19 1009.54 1009.93 1010.33 1010.75 1011.18 1011.64 1012.14 1012.69 1013.31 1013.99 1014.72 1015.50 1016.28 1017.07 1017.84 1018.59 1019.32 1020.04 1020.75 1021.46
1011.68 1012.41 1012.88 1013.03 1012.86 1012.39 1011.70 1010.87 1010.01 1009.21 1008.57 1008.13 1007.91 1007.90 1008.04 1008.28 1008.54 1008.77 1008.91 1008.95 1008.88 1008.74 1008.55 1008.36 1008.21 1008.14 1008.14 1008.24 1008.42 1008.66 1008.95 1009.29 1009.67 1010.10 1010.58 1011.11 1011.72 1012.39 1013.11 1013.89 1014.69 1015.50 1016.30 1017.09 1017.86 1018.61 1019.37 1020.13 1020.91
Thickness
5740 5747 5752 5744 5724 5713 5709 5718 5726 5723 5725 5728 5729 5728 5722 5711 5702 5689 5706 5714 5710 5704 5699 5696 5695 5694 5693 5693 5692 5692 5692 5691 5691 5691 5691 5690 5690 5689 5689 5688 5687 5686 5685 5684 5683 5682 5681 5680 5680
5737 5744 5741 5730 5708 5697 5704 5719 5720 5720 5723 5727 5727 5727 5723 5708 5708 5705 5709 5711 5708 5703 5699 5696 5693 5692 5691 5691 5690 5690 5689 5689 5689 5688 5688 5688 5687 5687 5686 5685 5684 5683 5682 5681 5680 5680 5679 5678 5677
5735 5739 5725 5714 5704 5699 5704 5718 5719 5720 5725 5726 5722 5724 5717 5706 5707 5707 5710 5710 5707 5702 5698 5694 5692 5691 5690 5689 5689 5688 5687 5687 5686 5686 5686 5685 5685 5684 5683 5682 5681 5681 5680 5679 5678 5677 5676 5675 5675
5728 5724 5718 5704 5699 5710 5715 5720 5722 5717 5719 5723 5723 5714 5709 5711 5711 5711 5711 5709 5705 5701 5696 5693 5691 5690 5689 5688 5687 5686 5685 5685 5684 5684 5683 5683 5682 5681 5680 5680 5679 5678 5677 5676 5675 5674 5673 5673 5673
5722 5710 5696 5693 5701 5713 5721 5723 5724 5718 5717 5719 5720 5712 5700 5706 5712 5711 5709 5707 5704 5700 5695 5691 5690 5689 5688 5687 5686 5685 5684 5683 5682 5682 5681 5680 5679 5678 5678 5677 5676 5675 5674 5673 5672 5672 5671 5670 5670
5705 5701 5685 5684 5698 5712 5719 5723 5722 5719 5719 5719 5718 5712 5698 5705 5707 5707 5707 5705 5702 5699 5694 5690 5688 5687 5686 5685 5684 5683 5682 5681 5680 5680 5679 5678 5677 5676 5676 5675 5674 5673 5672 5671 5670 5669 5668 5668 5668
5694 5689 5683 5690 5696 5705 5715 5721 5718 5717 5716 5718 5722 5711 5698 5702 5706 5706 5705 5703 5701 5697 5693 5689 5687 5686 5685 5684 5683 5682 5680 5679 5678 5678 5677 5676 5675 5674 5673 5673 5672 5671 5670 5669 5668 5667 5666 5665 5665
5698 5689 5684 5690 5694 5700 5714 5718 5719 5717 5716 5724 5723 5711 5700 5702 5705 5704 5702 5700 5699 5696 5693 5689 5686 5685 5683 5682 5681 5680 5679 5677 5676 5675 5675 5674 5673 5672 5671 5670 5669 5669 5667 5666 5665 5664 5664 5663 5663
5694 5678 5678 5689 5695 5701 5712 5711 5714 5718 5717 5717 5718 5713 5713 5708 5704 5700 5697 5696 5695 5694 5693 5690 5687 5685 5683 5681 5679 5678 5677 5676 5674 5673 5673 5672 5671 5670 5669 5668 5667 5666 5665 5664 5663 5663 5662 5662 5661
5680 5670 5684 5700 5705 5705 5708 5709 5709 5708 5707 5706 5707 5707 5707 5703 5700 5696 5694 5693 5692 5692 5692 5691 5689 5686 5684 5681 5678 5677 5676 5674 5673 5672 5672 5672 5671 5669 5667 5666 5665 5664 5663 5662 5662 5661 5661 5660 5659
5676 5677 5691 5699 5704 5705 5703 5705 5710 5704 5700 5707 5706 5703 5701 5699 5697 5695 5694 5694 5693 5693 5692 5691 5689 5687 5684 5682 5679 5677 5676 5675 5674 5672 5672 5671 5670 5667 5666 5664 5663 5662 5662 5661 5660 5660 5659 5659 5658
5673 5682 5690 5693 5696 5697 5697 5701 5702 5702 5706 5714 5718 5712 5703 5698 5697 5697 5696 5695 5694 5693 5691 5691 5689 5686 5684 5682 5680 5679 5677 5676 5674 5673 5672 5671 5669 5667 5665 5664 5663 5662 5661 5660 5659 5659 5658 5657 5655
5666 5675 5684 5687 5687 5690 5692 5693 5696 5702 5711 5715 5715 5709 5703 5700 5699 5699 5699 5697 5695 5693 5691 5690 5688 5686 5684 5682 5681 5679 5678 5676 5675 5673 5672 5670 5669 5667 5665 5664 5663 5662 5660 5659 5658 5657 5656 5655 5653
5664 5670 5675 5679 5681 5683 5681 5686 5691 5701 5709 5709 5707 5704 5703 5702 5700 5699 5699 5698 5696 5694 5692 5690 5688 5686 5684 5682 5681 5679 5678 5677 5675 5673 5672 5670 5669 5667 5665 5663 5662 5661 5660 5659 5657 5656 5654 5653 5651
5660 5658 5663 5670 5673 5677 5675 5673 5687 5701 5704 5703 5704 5704 5704 5704 5703 5701 5702 5700 5698 5696 5694 5691 5688 5686 5684 5682 5680 5679 5678 5677 5675 5674 5672 5671 5669 5667 5665 5663 5661 5660 5658 5657 5655 5654 5652 5650 5649
5645 5642 5643 5662 5668 5671 5663 5664 5691 5702 5700 5699 5702 5703 5704 5705 5705 5705 5704 5702 5700 5697 5694 5692 5689 5686 5684 5682 5680 5679 5678 5676 5675 5674 5672 5670 5669 5667 5665 5663 5661 5659 5657 5654 5653 5651 5649 5647 5645
5628 5628 5637 5652 5666 5667 5660 5665 5690 5701 5699 5698 5700 5703 5704 5704 5705 5706 5706 5704 5702 5699 5696 5692 5690 5687 5684 5682 5680 5679 5678 5677 5675 5674 5672 5670 5668 5667 5665 5662 5660 5658 5655 5653 5651 5648 5646 5643 5641
5624 5630 5638 5646 5661 5661 5657 5665 5682 5692 5694 5695 5699 5702 5703 5704 5706 5708 5707 5705 5703 5701 5698 5694 5690 5687 5685 5682 5679 5678 5676 5676 5675 5674 5672 5670 5668 5666 5664 5662 5660 5657 5654 5651 5648 5645 5643 5640 5637
5636 5633 5635 5647 5660 5654 5653 5660 5674 5684 5687 5690 5694 5699 5702 5705 5709 5709 5708 5705 5703 5701 5698 5695 5691 5688 5685 5682 5679 5676 5675 5674 5674 5673 5673 5671 5669 5666 5663 5661 5658 5655 5652 5649 5646 5642 5639 5635 5632
5623 5624 5631 5641 5646 5646 5646 5655 5672 5682 5686 5692 5695 5697 5701 5704 5706 5707 5707 5705 5703 5701 5699 5696 5693 5689 5686 5684 5681 5679 5676 5675 5675 5673 5672 5671 5668 5665 5662 5660 5657 5654 5651 5647 5643 5640 5635 5631 5628
5613 5617 5624 5628 5631 5634 5632 5640 5662 5680 5688 5693 5698 5701 5704 5705 5705 5706 5706 5705 5703 5702 5701 5699 5696 5692 5688 5684 5679 5676 5674 5674 5673 5672 5671 5669 5667 5665 5662 5659 5656 5653 5649 5645 5642 5638 5633 5627 5623
5607 5618 5619 5617 5612 5614 5623 5620 5661 5679 5685 5691 5695 5698 5702 5705 5706 5706 5706 5705 5705 5704 5702 5700 5697 5693 5690 5685 5681 5678 5677 5677 5677 5674 5672 5669 5667 5665 5662 5658 5655 5651 5648 5644 5640 5636 5631 5626 5620
5606 5611 5608 5605 5601 5599 5612 5610 5642 5672 5676 5687 5695 5698 5701 5704 5706 5706 5707 5707 5707 5705 5702 5699 5696 5693 5691 5687 5684 5680 5679 5680 5677 5673 5671 5669 5666 5664 5661 5657 5653 5650 5646 5642 5638 5633 5629 5624 5619
5596 5593 5588 5587 5583 5578 5604 5601 5628 5659 5675 5686 5694 5699 5701 5703 5705 5707 5708 5707 5706 5704 5701 5698 5695 5693 5691 5688 5684 5682 5681 5679 5675 5672 5670 5668 5665 5663 5660 5656 5652 5648 5644 5640 5635 5631 5626 5621 5616
5582 5573 5561 5558 5560 5577 5608 5604 5631 5665 5682 5688 5691 5695 5698 5699 5701 5703 5704 5704 5703 5702 5700 5698 5695 5693 5691 5688 5685 5684 5681 5678 5675 5673 5671 5667 5664 5662 5660 5655 5651 5647 5643 5638 5633 5627 5623 5618 5613
5580 5580 5570 5563 5566 5580 5594 5600 5639 5669 5679 5685 5688 5689 5690 5692 5693 5697 5699 5700 5700 5699 5698 5696 5694 5692 5690 5687 5686 5684 5680 5677 5676 5673 5671 5668 5666 5663 5659 5653 5649 5645 5640 5635 5630 5624 5619 5614 5609
5569 5571 5585 5571 5565 5568 5583 5610 5641 5658 5664 5669 5673 5675 5678 5681 5685 5688 5691 5693 5694 5694 5693 5692 5691 5689 5688 5686 5684 5681 5679 5676 5675 5673 5669 5667 5664 5661 5656 5651 5646 5641 5636 5631 5625 5620 5615 5609 5604
5573 5571 5559 5554 5553 5561 5586 5604 5624 5643 5649 5656 5660 5664 5668 5672 5675 5678 5679 5682 5684 5686 5686 5686 5685 5684 5683 5681 5680 5678 5676 5674 5671 5667 5665 5663 5661 5657 5651 5646 5641 5636 5631 5625 5620 5615 5609 5602 5597
5562 5559 5560 5557 5562 5565 5572 5600 5645 5648 5650 5651 5654 5658 5661 5663 5664 5665 5667 5670 5672 5674 5675 5675 5676 5675 5674 5674 5673 5671 5670 5668 5664 5662 5660 5657 5654 5651 5647 5641 5635 5630 5625 5619 5613 5608 5601 5595 5588
5563 5564 5563 5557 5557 5572 5575 5597 5643 5646 5645 5645 5646 5649 5651 5653 5653 5654 5656 5657 5659 5660 5662 5663 5664 5665 5665 5665 5664 5664 5662 5660 5657 5656 5654 5650 5647 5643 5639 5634 5628 5623 5617 5612 5607 5601 5594 5587 5580